Regional Weather Roundup
Issued by NWS Sioux Falls, SD

Home | Current Version | Previous Version | Text Only | Print | Product List | Glossary Off
Versions: 1 2 3 4 5 6 7 8 9 10 11 12 13 14 15 16 17 18 19 20 21 22 23 24 25 26 27 28 29 30 31 32 33 34 35 36 37 38 39 40 41 42 43 44 45 46 47 48 49 50

000
ASUS43 KFSD 271102
RWRFSD

WEATHER ROUNDUP FOR SE SOUTH DAKOTA/SW MINNESOTA/NW IOWA
NATIONAL WEATHER SERVICE SIOUX FALLS SD
500 AM CST MON FEB 27 2017

NOTE: "FAIR" INDICATES FEW OR NO CLOUDS BELOW 12,000 FEET WITH NO
SIGNIFICANT WEATHER AND OR OBSTRUCTIONS TO VISIBILITY.


SDZ038>040-050-052>070-271200-
SOUTHEAST SOUTH DAKOTA

CITY           SKY/WX    TMP DP  RH WIND       PRES   REMARKS
BROOKINGS      CLEAR     23  18  81 S5        29.86R WCI  17
CHAMBERLAIN    MOCLDY    21  17  83 CALM      29.83F
HURON          CLEAR     20  17  88 S5        29.85S WCI  13
MADISON        FAIR      21  19  93 SW7       29.87R WCI  13
MITCHELL       CLEAR     21  17  84 S6        29.88R WCI  13
SIOUX FALLS    CLEAR     25  19  78 S5        29.89S WCI  19
WINNER         FAIR      23  12  62 SW16      29.80F WCI  10
YANKTON        CLEAR     19  12  73 SE6       29.90S WCI  11
$$

MNZ071-072-080-081-089-090-097-098-271200-
SOUTHWEST MINNESOTA

CITY           SKY/WX    TMP DP  RH WIND       PRES   REMARKS
FAIRMONT       CLEAR     15  11  83 S9        29.95S WCI   3
JACKSON        CLEAR     23  19  86 SW9       29.93R WCI  13
LUVERNE        CLEAR     23  19  86 S6        29.91S WCI  16
MARSHALL       CLEAR     29  20  69 SW13      29.87S WCI  19
MONTEVIDEO     CLEAR     27  21  80 SW6       29.90R WCI  20
PIPESTONE      CLEAR     25  18  74 S8        29.88R WCI  16
REDWOOD FALLS  CLEAR     27  21  78 SW8       29.89S WCI  19
TRACY          CLEAR     29  23  76 SW15      29.88S WCI  18
WINDOM         CLEAR     27  21  80 S10       29.91R WCI  17
WORTHINGTON    CLEAR     25  21  85 S12       29.91S WCI  14
$$

IAZ001>003-012>014-020>022-031-032-NEZ013-014-SDZ071-271200-
NORTHWEST IOWA

CITY           SKY/WX    TMP DP  RH WIND       PRES   REMARKS
CHEROKEE       CLOUDY    12  11  97 CALM      29.96F
DENISON        CLEAR     19  18  93 CALM      29.96S
ESTHERVILLE    CLEAR     14  12  92 S12       29.93F WCI   0
LE MARS        CLEAR     21  19  93 S7        29.95S WCI  13
SHELDON        CLEAR     23  23 100 S7        29.92R WCI  15
SIOUX CITY     CLEAR     17  14  88 E9        29.96F WCI   6
SPENCER        CLEAR     16  13  88 S5        29.95R WCI   9
STORM LAKE     CLOUDY    23  18  80 S8        29.96S WCI  14
$$

ABBREVIATIONS USED IN REMARKS
   TC - TEMPERATURE IN CELSIUS
  WCI - WIND CHILL INDEX
   HX - HEAT INDEX
  VSB - VISIBILITY




USA.gov is the U.S. government's official web portal to all federal, state and local government web resources and services.